SCP
0 0 0 0 0 0 0 0 0 0 0 0 0 0 0 0 0 0 0 0 0 0 0 0 0 0 0 0 0 0 0 0 0 0 1 1 1 1
0 0 0 0 0 0 0 0 0 0 0 0 0 0 0 0 0 0 0 0 0 0 0 0 0 0 0 0 0 0 0 0 0 0 0 0 1 1
0 0 0 0 0 0 0 0 0 0 0 0 0 0 0 0 0 0 0 0 0 0 0 0 0 0 0 0 0 0 0 0 0 0 0 0 0 0
0 0 0 0 0 0 0 0 0 0 0 0 0 0 0 0 0 0 0 0 0 0 0 0 0 0 0 0 0 0 0 0 0 0 0 0 0 0
0 0 0 0 0 0 0 0 0 0 0 0 0 0 0 0 0 0 0 0 0 0 0 0 0 0 0 0 0 0 0 0 0 0 0 0 0 0
0 0 0 0 0 0 0 0 0 0 0 0 0 0 0 0 0 0 0 0 0 0 0 0 0 0 0 0 0 0 0 0 0 0 0 0 0 0
0 0 0 0 0 0 0 0 0 0 0 0 0 0 0 0 0 0 0 0 0 0 0 0 0 0 0 0 0 0 0 0 0 0 0 0 0 0
0 0 0 0 0 0 0 0 0 0 0 0 0 0 0 0 0 0 0 0 0 0 0 0 0 0 0 0 0 0 0 0 0 0 0 0 0 0
0 0 0 0 0 0 0 0 0 0 0 0 0 0 0 0 0 0 0 0 0 0 0 0 0 0 0 0 0 0 0 0 0 0 0 0 0 0
0 0 0 0 0 0 0 0 0 0 0 0 0 0 0 0 0 0 0 0 0 0 0 0 0 0 0 0 0 0 0 0 0 0 0 0 0 0
0 0 0 0 0 0 0 0 0 0 0 0 0 0 0 0 0 0 0 0 0 0 0 0 0 0 0 0 0 0 0 0 0 0 0 0 0 0
0 0 0 0 0 0 0 0 0 0 0 0 0 0 0 0 0 0 0 0 0 0 0 0 0 0 0 0 0 0 0 0 0 0 0 0 0 0
0 0 0 0 0 0 0 0 0 0 0 0 0 0 0 0 0 0 0 0 0 0 0 0 0 0 0 0 0 0 0 0 0 0 0 0 0 0
0 0 0 0 0 0 0 0 0 0 0 0 0 0 0 0 0 0 0 0 0 0 0 0 0 0 0 0 0 0 0 0 0 0 0 0 0 0
0 0 0 0 0 0 0 0 0 0 0 0 0 0 0 0 0 0 0 0 0 0 0 0 0 0 0 0 0 0 0 0 0 0 0 0 0 0
0 0 0 0 0 0 0 0 0 0 0 0 0 0 0 0 0 0 0 0 0 0 0 0 0 0 0 0 0 0 0 0 0 0 0 0 0 0
0 0 0 0 0 0 0 0 0 0 0 0 0 0 0 0 0 0 0 0 0 0 0 0 0 0 0 0 0 0 0 0 0 0 0 0 0 0
0 0 0 0 0 0 0 0 0 0 0 0 0 0 0 0 0 0 0 0 0 0 0 0 0 0 0 0 0 0 0 0 0 0 0 0 0 0
0 0 0 0 0 0 0 0 0 0 0 0 0 0 0 0 0 0 0 0 0 0 0 0 0 0 0 0 0 0 0 0 0 0 0 0 0 0
0 0 0 0 0 0 0 0 0 0 0 0 0 0 0 0 0 0 0 0 0 0 0 0 0 0 0 0 0 0 0 0 0 0 0 0 0 0
0 0 0 0 0 0 0 0 0 0 0 0 0 0 0 0 0 0 0 0 0 0 0 0 0 0 0 0 0 0 0 0 0 0 0 0 0 0
0 0 0 0 0 0 0 0 0 0 0 0 0 0 0 0 0 0 0 0 0 0 0 0 0 0 0 0 0 0 0 0 0 0 0 0 0 0
0 0 0 0 0 0 0 0 0 0 0 0 0 0 0 0 0 0 0 0 0 0 0 0 0 0 0 0 0 0 0 0 0 0 0 0 0 0
Wind_Speed
5 5 4 3 3 2 2 1 1 3 4 3 2 3 5 5 11 8 9 17 21 21 22 23 23 24 24 25 26 26 26 27 27 28 28 29 29 30
4 5 4 3 3 3 2 2 1 1 4 3 2 4 6 6 12 8 8 18 17 20 21 22 22 23 23 24 25 25 26 26 27 27 28 28 29 29
5 5 5 3 3 2 2 2 1 1 4 4 2 5 5 7 8 6 7 6 8 18 20 21 22 22 23 23 24 25 25 25 26 27 28 28 28 29
5 5 4 3 3 2 2 2 1 1 3 7 5 5 6 8 8 8 7 7 6 15 20 20 20 22 22 23 23 23 24 25 25 26 27 27 28 28
5 4 4 3 3 2 1 1 1 2 2 5 7 5 5 6 8 7 7 6 6 11 16 16 19 21 22 22 22 22 23 24 25 25 26 26 27 27
4 4 3 3 2 1 1 1 1 2 3 4 6 6 5 6 6 8 9 7 8 7 10 13 17 19 20 21 21 21 22 23 24 24 25 25 26 26
4 3 2 2 2 1 1 1 2 2 3 4 6 7 7 8 8 7 10 10 8 4 6 8 8 7 9 14 17 20 22 23 24 24 25 25 25 25
4 3 2 2 2 3 4 4 4 4 5 4 6 8 9 9 8 8 9 10 9 4 8 10 5 6 6 6 16 21 22 23 23 24 24 25 25 24
3 2 1 1 1 1 3 5 5 7 8 6 6 7 9 8 9 9 8 9 9 8 8 9 5 6 6 8 17 19 21 22 23 24 25 25 24 23
3 2 1 0 1 2 2 3 3 4 6 4 5 6 6 6 6 7 8 8 8 5 4 6 6 6 7 6 13 18 20 22 23 24 25 25 24 23
2 1 1 1 4 5 3 3 4 4 6 9 10 10 11 11 9 5 5 6 7 5 2 4 5 7 6 3 7 16 19 21 22 24 25 25 25 22
1 1 1 2 4 5 2 3 5 5 4 5 6 7 6 7 9 4 4 5 5 5 3 4 4 6 7 4 4 6 9 16 21 22 24 25 25 14
2 1 2 4 5 6 4 2 5 5 3 3 4 4 4 3 3 4 3 4 5 5 3 4 4 3 4 6 5 4 6 7 9 12 17 23 24 18
2 2 2 5 5 5 4 4 7 5 2 2 3 3 4 4 4 5 5 5 5 6 5 4 3 4 4 5 6 6 6 6 7 9 9 16 17 20
2 3 4 4 3 3 4 5 3 2 2 2 3 3 3 4 4 4 4 4 5 4 2 2 3 4 3 4 5 5 6 6 7 8 9 9 9 10
1 1 2 2 1 1 2 2 2 1 1 2 3 3 3 3 3 3 3 4 4 3 3 3 4 4 4 4 4 4 4 5 7 8 8 7 7 8
2 1 0 0 0 0 1 1 1 1 1 2 2 3 3 3 3 3 3 3 2 4 5 4 5 5 4 3 2 3 4 4 5 7 7 7 6 7
3 2 2 2 2 2 1 2 1 2 2 2 2 2 3 3 4 3 2 2 3 3 4 4 5 5 4 3 1 2 3 4 5 6 5 5 6 6
3 2 3 3 3 2 2 2 2 2 2 2 2 2 3 3 3 3 3 3 3 3 3 3 3 3 4 4 5 4 4 4 5 4 4 3 5 7
3 3 4 3 3 3 3 3 3 2 2 2 2 2 2 2 2 3 3 3 3 3 3 2 2 2 2 3 4 5 7 5 4 5 4 4 4 7
4 4 4 3 3 3 3 3 3 3 3 2 3 3 2 2 3 3 3 3 3 2 3 4 3 5 4 2 3 5 4 7 8 5 5 4 4 4
4 5 4 4 4 4 3 3 3 3 3 3 3 3 3 3 3 4 3 3 3 3 4 4 4 3 1 2 4 5 5 6 8 10 7 5 3 4
5 5 4 4 4 4 4 4 5 4 4 4 3 3 3 3 3 3 3 3 3 3 3 3 3 2 2 2 3 4 5 6 5 5 4 8 10 10
Wind_Direction
99 96 90 76 69 63 62 70 306 306 297 306 339 7 0 347 339 336 329 330 335 336 335 334 334 333 332 331 329 328 327 325 323 321 319 316 313 310
97 95 85 76 70 64 62 52 51 268 280 293 316 338 338 334 333 328 318 331 331 333 333 333 334 334 333 332 332 330 328 327 327 325 323 320 316 314
94 95 88 84 80 66 59 56 45 325 280 293 303 325 321 324 324 319 315 316 321 329 332 334 335 335 334 334 334 332 331 331 329 328 326 324 321 318
105 100 94 90 82 66 55 43 17 338 301 303 309 322 319 318 317 318 323 324 315 324 331 333 336 336 335 335 335 334 333 332 330 330 328 327 325 324
110 107 103 95 82 61 45 22 345 330 307 303 308 310 309 316 322 318 315 312 315 322 327 333 334 334 334 336 336 336 334 333 332 332 332 330 328 326
103 102 100 96 91 62 33 352 329 321 310 305 307 313 314 318 324 330 329 329 322 317 326 330 328 330 332 334 335 335 335 336 336 336 335 334 333 332
102 95 92 84 58 39 1 329 326 315 312 312 315 318 323 333 334 329 323 322 316 305 321 318 317 316 324 329 332 336 341 342 341 339 338 337 335 334
115 103 95 85 29 4 344 334 328 317 313 310 313 316 319 321 321 320 320 324 322 327 327 314 314 314 318 318 331 340 345 346 345 343 341 340 340 340
122 121 112 72 322 296 316 326 321 313 312 305 300 304 308 313 315 314 316 314 305 310 316 303 313 312 318 324 334 343 348 349 349 349 349 349 348 348
128 137 145 284 300 310 298 302 295 298 306 302 279 287 295 303 305 308 309 304 290 284 305 295 309 311 315 315 333 348 351 352 352 353 353 354 356 357
145 159 194 258 307 327 325 307 304 298 314 315 311 312 317 324 329 324 320 319 311 309 342 307 307 314 305 305 336 350 352 353 354 355 356 357 360 1
161 177 243 290 307 317 306 295 301 307 313 318 319 321 323 324 330 325 307 302 301 300 335 331 308 326 315 307 328 342 348 349 352 354 355 358 0 360
184 207 249 287 298 304 309 292 299 317 320 313 308 309 314 315 318 316 299 284 284 276 310 329 305 310 291 304 314 335 347 344 344 348 352 355 0 5
196 214 250 280 293 305 316 321 332 342 338 322 315 314 317 316 314 309 298 288 272 274 294 307 289 300 303 300 303 324 334 344 347 348 347 351 359 3
201 235 263 282 310 330 332 342 358 352 330 317 309 305 307 306 309 309 302 304 294 283 300 316 302 296 281 281 300 318 325 334 348 347 346 349 352 355
207 249 286 294 334 355 360 1 2 337 308 292 295 300 306 310 313 319 316 328 324 311 312 326 319 308 291 283 288 303 320 323 336 341 340 342 349 355
160 132 112 91 250 292 320 316 318 326 306 292 295 301 307 313 313 324 318 324 318 313 319 328 325 306 279 271 294 304 316 321 330 338 339 338 344 351
163 182 206 215 226 237 260 284 280 283 286 287 290 295 303 309 310 315 312 310 307 307 313 322 333 337 335 311 254 305 320 319 327 333 335 331 332 342
175 196 207 213 222 227 232 240 255 267 278 280 283 289 294 296 300 306 311 309 304 303 306 317 333 353 346 319 312 349 337 324 327 326 327 323 313 323
193 204 211 213 216 222 228 237 253 268 268 270 274 276 277 280 286 290 292 292 297 301 305 308 312 324 283 281 294 306 327 326 324 321 318 313 301 316
208 213 213 211 215 220 227 232 239 247 251 256 259 260 260 262 269 272 276 284 285 288 298 300 304 310 286 277 290 290 301 325 329 317 316 318 321 328
211 214 215 213 213 215 220 225 233 238 241 242 246 248 247 246 255 261 260 265 266 269 278 289 306 312 287 265 281 292 302 317 326 330 330 328 321 321
212 213 214 213 213 211 214 221 229 237 234 235 238 238 235 240 244 249 254 252 258 272 284 296 304 302 283 271 281 290 298 309 316 324 316 330 334 328